URMT Weather Reports


time (UTC)temp
F
wind
direction
speed
knots
gust
knots
rain 1hr
in
rain 24hr
in
rain mn
in
humidity
%
barometer
mb
20260507080045 57 310 11.3 0.0 0.00 0.00 0.00 71 1020.0
20260507073043 57 320 11.3 0.0 0.00 0.00 0.00 71 1020.0
20260507070045 55 300 11.3 0.0 0.00 0.00 0.00 76 1020.0
20260507060043 51 290 11.3 0.0 0.00 0.00 0.00 87 1020.0
20260507053043 51 300 11.3 0.0 0.00 0.00 0.00 87 1020.0
20260507050044 51 300 11.3 0.0 0.00 0.00 0.00 87 1019.0
20260507043045 51 290 11.3 0.0 0.00 0.00 0.00 87 1019.0
20260507040044 51 280 11.3 0.0 0.00 0.00 0.00 87 1018.0
20260507033044 51 280 11.3 0.0 0.00 0.00 0.00 87 1018.0
20260507030044 50 270 11.3 0.0 0.00 0.00 0.00 93 1018.0
20260507023045 51 310 11.3 0.0 0.00 0.00 0.00 87 1017.0
20260507020043 51 310 11.3 0.0 0.00 0.00 0.00 76 1017.0
20260507013044 53 310 11.3 0.0 0.00 0.00 0.00 71 1017.0
20260507010043 53 300 11.3 0.0 0.00 0.00 0.00 66 1017.0
20260507003045 53 300 11.3 0.0 0.00 0.00 0.00 62 1017.0
20260507000044 53 290 9.6 0.0 0.00 0.00 0.00 62 1017.0
20260506233045 53 290 11.3 0.0 0.00 0.00 0.00 62 1017.0
20260506230044 53 290 11.3 0.0 0.00 0.00 0.00 62 1017.0
20260506223044 53 290 11.3 0.0 0.00 0.00 0.00 62 1017.0
20260506220046 55 290 9.6 0.0 0.00 0.00 0.00 58 1017.0
20260506213045 53 280 9.6 0.0 0.00 0.00 0.00 62 1017.0
20260506210045 55 290 9.6 0.0 0.00 0.00 0.00 58 1017.0
20260506203046 55 300 9.6 0.0 0.00 0.00 0.00 58 1016.0
20260506200047 55 300 9.6 0.0 0.00 0.00 0.00 58 1016.0
20260506193045 53 270 9.6 0.0 0.00 0.00 0.00 66 1017.0
20260506190045 53 280 9.6 0.0 0.00 0.00 0.00 71 1017.0
20260506183045 55 280 9.6 0.0 0.00 0.00 0.00 66 1016.0
20260506180045 55 280 9.6 0.0 0.00 0.00 0.00 66 1016.0
20260506173045 55 290 9.6 0.0 0.00 0.00 0.00 66 1016.0
20260506170045 55 290 9.6 0.0 0.00 0.00 0.00 66 1016.0
20260506163046 55 290 9.6 0.0 0.00 0.00 0.00 66 1016.0
20260506160046 57 290 9.6 0.0 0.00 0.00 0.00 62 1016.0
20260506153046 57 300 9.6 0.0 0.00 0.00 0.00 62 1015.0
20260506150045 59 310 9.6 0.0 0.00 0.00 0.00 54 1015.0
20260506143045 59 310 11.3 0.0 0.00 0.00 0.00 54 1015.0
20260506140046 59 320 13.9 0.0 0.00 0.00 0.00 54 1015.0
20260506133046 60 330 13.9 0.0 0.00 0.00 0.00 51 1015.0
20260506130045 60 320 11.3 0.0 0.00 0.00 0.00 51 1015.0
20260506123044 60 320 11.3 0.0 0.00 0.00 0.00 47 1015.0
20260506120045 60 330 9.6 0.0 0.00 0.00 0.00 51 1015.0
20260506113045 60 310 9.6 0.0 0.00 0.00 0.00 47 1015.0
20260506110045 59 290 9.6 0.0 0.00 0.00 0.00 54 1015.0
20260506103045 57 290 7.8 0.0 0.00 0.00 0.00 58 1016.0
20260506100047 57 290 7.8 0.0 0.00 0.00 0.00 58 1016.0
20260506093046 55 270 7.8 0.0 0.00 0.00 0.00 58 1016.0
20260506090044 57 280 7.8 0.0 0.00 0.00 0.00 58 1016.0
20260506083045 55 290 7.8 0.0 0.00 0.00 0.00 62 1016.0